KB1JDX Weather Reports


time (UTC)temp
C
wind
direction
speed
KPH
gust
KPH
rain 1hr
cm
rain 24hr
cm
rain mn
cm
humidity
%
barometer
mb
20260902113206 16 167 0.0 0.0 0.00 0.00 0.00 100 1021.2
20260902113102 16 167 0.0 0.0 0.00 0.00 0.00 100 1021.1
20260902103205 15 167 0.0 0.0 0.00 0.00 0.00 100 1020.9
20260902103102 15 167 0.0 0.0 0.00 0.00 0.00 100 1020.9
20260902102130 15 167 0.0 0.0 0.00 0.00 0.00 100 1020.0
20260902101205 15 167 0.0 0.0 0.00 0.00 0.00 100 1020.7
20260902093204 15 167 0.0 0.0 0.00 0.00 0.00 100 1020.1
20260902093102 15 167 0.0 0.0 0.00 0.00 0.00 100 1020.1
20260902091205 15 167 0.0 0.0 0.00 0.00 0.00 100 1020.0
20260902083205 15 167 0.0 0.0 0.00 0.00 0.00 100 1020.0
20260902083101 15 167 0.0 0.0 0.00 0.00 0.00 100 1020.0
20260902081204 15 167 0.0 0.0 0.00 0.00 0.00 100 1020.1
20260902075204 15 167 0.0 0.0 0.00 0.00 0.00 100 1019.7
20260902073102 15 167 0.0 0.0 0.00 0.00 0.00 100 1020.0
20260902071204 16 167 0.0 0.0 0.00 0.00 0.00 100 1019.6
20260902065204 16 167 0.0 0.0 0.00 0.00 0.00 100 1019.9
20260902063205 16 167 0.0 0.0 0.00 0.00 0.00 100 1020.0
20260902063102 16 167 0.0 0.0 0.00 0.00 0.00 100 1020.0
20260902061204 15 167 0.0 0.0 0.00 0.00 0.00 100 1020.0
20260902055204 15 167 0.0 0.0 0.00 0.00 0.00 100 1019.6
20260902053204 15 167 0.0 0.0 0.00 0.00 0.00 100 1019.6
20260902053102 15 167 0.0 0.0 0.00 0.00 0.00 100 1019.6
20260902051204 15 167 0.0 0.0 0.00 0.00 0.00 100 1019.0
20260902045204 15 167 0.0 0.0 0.00 0.00 0.00 100 1019.3
20260902043204 15 167 0.0 0.0 0.00 0.00 0.00 100 1019.4
20260902043101 15 167 0.0 0.0 0.00 0.00 0.00 100 1019.3
20260902033102 16 167 0.0 0.0 0.00 0.00 0.00 100 1018.8
20260902031204 16 167 0.0 0.0 0.00 0.00 0.00 100 1018.5
20260902023204 16 167 0.0 0.0 0.00 0.00 0.00 100 1018.8
20260902023101 16 167 0.0 0.0 0.00 0.00 0.00 100 1018.7
20260902021204 16 167 0.0 0.0 0.00 0.00 0.00 100 1018.5
20260902015204 16 167 0.0 0.0 0.00 0.00 0.00 100 1018.5
20260902015101 16 167 0.0 0.0 0.00 0.00 0.00 100 1018.4
20260902013604 16 167 0.0 0.0 0.00 0.00 0.00 100 1018.5
20260902013101 16 167 0.0 0.0 0.00 0.00 0.00 100 1018.5
20260902012805 16 167 0.0 0.0 0.00 0.00 0.00 100 1018.5
20260902012404 16 167 0.0 0.0 0.00 0.00 0.00 100 1018.5
20260902012205 16 167 0.0 0.0 0.00 0.00 0.00 100 1018.5
20260902012101 16 167 0.0 0.0 0.00 0.00 0.00 100 1018.5
20260901153219 18 341 0.0 11.3 0.00 0.00 0.00 100 1016.6
20260901153114 18 59 0.0 11.3 0.00 0.00 0.00 100 1016.6
20260901151219 19 148 0.0 11.3 0.00 0.00 0.00 100 1016.8
20260901145220 19 194 0.0 0.0 0.00 0.00 0.00 100 1016.9
20260901143219 19 319 0.0 0.0 0.00 0.00 0.00 100 1016.6
20260901143114 19 319 0.0 0.0 0.00 0.00 0.00 100 1016.6
20260901141219 19 323 0.0 0.0 0.00 0.00 0.00 100 1016.9
20260901135219 19 327 0.0 0.0 0.00 0.00 0.00 100 1016.7
20260901133220 19 327 0.0 0.0 0.00 0.00 0.00 100 1016.7
20260901133114 19 327 0.0 0.0 0.00 0.00 0.00 100 1016.7
20260901131221 19 327 0.0 0.0 0.00 0.00 0.00 100 1016.7
20260901123219 19 339 0.0 0.0 0.00 0.00 0.00 100 1016.8
20260901123114 19 339 0.0 0.0 0.00 0.00 0.00 100 1016.9
20260901121220 19 339 0.0 0.0 0.00 0.00 0.00 100 1016.9